Date String (YYYY-MM-DD hh:mm:ss) UTC,Instrument flags,Ambient pressure (hPa),Sample flow (lpm),Bypass flow (lpm),Sample temperature (°C),Ambient temperature (°C),ASC tube jacket temperature (°C),LED temperature (°C),Box temperature (°C),Sample RH (%),Span deviation,Mass concentration (μg/m³),Mass concentration (μg/m³),Mass concentration (μg/m³)
DateTimeUTC,F1_M11,P_M11,Q1_M11,Q2_M11,T1_M11,T2_M11,T3_M11,T4_M11,T5_M11,U1_M11,ZSPAN_M11,X2_M11,X0_M11,X1_M11
2021-12-04 23:00:00,,0823.0,4.99,0.00,30.0,29.3,00.0,38.9,31.6,07.0,0000.0,0000.81,0001.74,0000.60
2021-12-04 23:01:00,,0822.9,5.00,0.00,30.0,29.3,00.0,38.9,31.7,07.0,0000.0,0000.83,0001.65,0000.59
2021-12-04 23:02:00,,0823.0,5.00,0.00,30.0,29.3,00.0,38.9,31.7,06.9,0000.0,0000.88,0001.80,0000.59
2021-12-04 23:03:00,,0823.0,4.99,0.00,30.0,29.3,00.0,38.9,31.8,06.9,0000.0,0000.93,0001.90,0000.59
2021-12-04 23:04:00,,0823.0,5.02,0.00,30.0,29.3,00.0,38.9,31.7,06.9,0000.0,0000.92,0001.90,0000.58
2021-12-04 23:05:00,,0823.1,5.00,0.00,30.0,29.3,00.0,38.9,31.7,06.9,0000.0,0000.91,0001.85,0000.57
2021-12-04 23:06:00,,0822.9,4.99,0.00,30.0,29.3,00.0,38.9,31.7,07.0,0000.0,0000.91,0001.74,0000.56
2021-12-04 23:07:00,,0823.0,5.02,0.00,30.0,29.3,00.0,39.0,31.7,06.9,0000.0,0000.89,0001.96,0000.55
2021-12-04 23:08:00,,0823.0,4.98,0.00,30.0,29.3,00.0,39.0,31.7,06.9,0000.0,0000.89,0002.60,0000.54
2021-12-04 23:09:00,,0822.9,5.01,0.00,30.0,29.3,00.0,39.0,31.7,06.9,0000.0,0000.87,0002.51,0000.53
2021-12-04 23:10:00,,0823.0,5.00,0.00,30.0,29.3,00.0,39.0,31.8,06.8,0000.0,0000.84,0002.38,0000.53
2021-12-04 23:11:00,,0822.9,5.00,0.00,30.0,29.3,00.0,39.0,31.8,06.8,0000.0,0000.83,0002.36,0000.52
2021-12-04 23:12:00,,0822.9,4.98,0.00,30.1,29.3,00.0,39.0,31.8,06.8,0000.0,0000.82,0002.44,0000.51
2021-12-04 23:13:00,,0823.0,5.01,0.00,30.1,29.3,00.0,39.0,31.7,06.8,0000.0,0000.77,0002.33,0000.50
2021-12-04 23:14:00,,0823.0,4.99,0.00,30.1,29.3,00.0,39.0,31.8,06.9,0000.0,0000.72,0003.24,0000.49
2021-12-04 23:15:00,,0823.0,5.01,0.00,30.1,29.3,00.0,39.0,31.7,06.9,0000.0,0000.72,0003.64,0000.48
2021-12-04 23:16:00,,0823.0,5.00,0.00,30.1,29.3,00.0,39.0,31.7,06.9,0000.0,0000.76,0003.88,0000.48
2021-12-04 23:17:00,,0822.9,4.98,0.00,30.1,29.3,00.0,39.0,31.8,06.9,0000.0,0000.78,0003.98,0000.47
2021-12-04 23:18:00,,0822.9,5.01,0.00,30.1,29.3,00.0,39.0,31.7,06.9,0000.0,0000.81,0004.08,0000.47
2021-12-04 23:19:00,,0822.9,4.99,0.00,30.1,29.3,00.0,39.0,31.7,06.9,0000.0,0000.81,0003.91,0000.46
2021-12-04 23:20:00,,0822.9,5.01,0.00,30.1,29.3,00.0,39.0,31.7,06.8,0000.0,0000.87,0005.22,0000.46
2021-12-04 23:21:00,,0823.0,4.98,0.00,30.1,29.3,00.0,39.0,31.7,06.9,0000.0,0000.91,0006.33,0000.46
2021-12-04 23:22:00,,0823.0,5.01,0.00,30.0,29.3,00.0,39.0,31.7,06.9,0000.0,0000.96,0006.88,0000.46
2021-12-04 23:23:00,,0822.9,5.00,0.00,30.0,29.3,00.0,39.0,31.7,07.0,0000.0,0000.95,0007.35,0000.47
2021-12-04 23:24:00,,0822.9,4.99,0.00,30.0,29.3,00.0,39.0,31.7,06.9,0000.0,0000.95,0007.43,0000.47
2021-12-04 23:25:00,,0822.8,5.00,0.00,30.1,29.2,00.0,39.0,31.7,06.8,0000.0,0000.99,0006.90,0000.48
2021-12-04 23:26:00,,0822.8,5.00,0.00,30.0,29.2,00.0,39.0,31.7,06.7,0000.0,0001.03,0006.66,0000.49
2021-12-04 23:27:00,,0822.8,4.99,0.00,30.0,29.2,00.0,39.0,31.7,06.7,0000.0,0001.07,0006.67,0000.50
2021-12-04 23:28:00,,0822.9,5.02,0.00,30.0,29.2,00.0,39.0,31.7,06.6,0000.0,0001.09,0006.85,0000.51
2021-12-04 23:29:00,,0823.0,4.98,0.00,30.0,29.2,00.0,39.0,31.7,06.5,0000.0,0001.13,0008.10,0000.52
2021-12-04 23:30:00,,0822.9,5.00,0.00,30.0,29.1,00.0,39.0,31.7,06.5,0000.0,0001.18,0008.29,0000.53
2021-12-04 23:31:00,,0822.9,5.01,0.00,30.0,29.1,00.0,39.0,31.7,06.5,0000.0,0001.18,0008.30,0000.54
2021-12-04 23:32:00,,0822.9,4.98,0.00,30.0,29.1,00.0,39.0,31.6,06.6,0000.0,0001.23,0009.00,0000.55
2021-12-04 23:33:00,,0822.9,5.00,0.00,29.9,29.1,00.0,39.0,31.6,06.7,0000.0,0001.23,0008.82,0000.56
2021-12-04 23:34:00,,0822.8,5.02,0.00,29.9,29.0,00.0,39.0,31.5,06.8,0000.0,0001.26,0008.97,0000.57
2021-12-04 23:35:00,,0822.8,4.99,0.00,29.9,29.0,00.0,39.0,31.6,06.7,0000.0,0001.27,0008.95,0000.58
2021-12-04 23:36:00,,0822.8,5.01,0.00,29.9,29.0,00.0,39.0,31.6,06.6,0000.0,0001.27,0008.90,0000.59
2021-12-04 23:37:00,,0822.8,4.99,0.00,29.9,28.9,00.0,39.0,31.5,06.6,0000.0,0001.33,0008.84,0000.62
2021-12-04 23:38:00,,0822.9,5.00,0.00,29.9,29.0,00.0,38.9,31.5,06.7,0000.0,0001.34,0009.03,0000.65
2021-12-04 23:39:00,,0823.0,5.02,0.00,29.9,29.0,00.0,38.9,31.5,06.6,0000.0,0001.31,0009.19,0000.68
2021-12-04 23:40:00,,0823.0,5.00,0.00,29.9,29.0,00.0,38.9,31.4,06.7,0000.0,0001.35,0008.43,0000.74
2021-12-04 23:41:00,,0822.9,5.00,0.00,29.8,28.9,00.0,38.9,31.4,06.8,0000.0,0001.44,0007.72,0000.82
2021-12-04 23:42:00,,0822.9,5.02,0.00,29.8,28.9,00.0,38.9,31.4,06.8,0000.0,0001.55,0007.18,0000.92
2021-12-04 23:43:00,,0822.9,5.00,0.00,29.8,29.0,00.0,38.9,31.4,06.9,0000.0,0001.71,0005.01,0001.10
2021-12-04 23:44:00,,0823.0,4.99,0.00,29.8,29.0,00.0,38.9,31.4,07.0,0000.0,0002.06,0005.86,0001.37
2021-12-04 23:45:00,,0822.9,5.00,0.00,29.8,29.0,00.0,38.9,31.4,07.0,0000.0,0002.41,0005.60,0001.71
2021-12-04 23:46:00,,0823.0,4.99,0.00,29.8,29.0,00.0,38.9,31.4,07.1,0000.0,0002.86,0008.07,0002.10
2021-12-04 23:47:00,,0822.9,5.02,0.00,29.8,29.0,00.0,38.9,31.4,07.2,0000.0,0003.28,0008.85,0002.60
2021-12-04 23:48:00,,0822.9,4.99,0.00,29.8,28.9,00.0,38.9,31.4,07.3,0000.0,0003.60,0010.73,0003.14
2021-12-04 23:49:00,,0822.8,5.01,0.00,29.8,28.9,00.0,38.9,31.4,07.4,0000.0,0004.04,0011.57,0003.57
2021-12-04 23:50:00,,0822.8,5.00,0.00,29.8,28.9,00.0,38.9,31.4,07.4,0000.7,0004.51,0012.43,0004.02
2021-12-04 23:51:00,,0822.8,4.99,0.00,29.8,28.9,00.0,38.8,31.3,07.4,0001.7,0005.03,0013.08,0004.53
2021-12-04 23:52:00,,0822.9,5.01,0.00,29.7,28.9,00.0,38.8,31.3,07.4,0002.1,0005.58,0013.70,0005.07
2021-12-04 23:53:00,,0822.9,4.99,0.00,29.7,28.9,00.0,38.8,31.3,07.3,0002.3,0006.10,0014.27,0005.59
2021-12-04 23:54:00,,0822.9,5.01,0.00,29.7,28.8,00.0,38.8,31.3,07.3,0002.7,0006.56,0014.81,0006.07
2021-12-04 23:55:00,,0822.9,5.00,0.00,29.7,28.8,00.0,38.8,31.3,07.4,0003.9,0006.95,0014.99,0006.48
2021-12-04 23:56:00,,0822.8,5.00,0.00,29.7,28.8,00.0,38.8,31.3,07.4,0004.1,0007.34,0015.27,0006.88
2021-12-04 23:57:00,,0822.9,5.00,0.00,29.7,28.8,00.0,38.8,31.3,07.4,0004.0,0007.65,0014.21,0007.21
2021-12-04 23:58:00,,0822.9,5.00,0.00,29.7,28.8,00.0,38.8,31.3,07.4,0004.1,0007.89,0014.03,0007.47
2021-12-04 23:59:00,,0823.0,5.00,0.00,29.7,28.8,00.0,38.8,31.3,07.4,0004.4,0008.12,0012.77,0007.69
